Retour au catalogue

USA 110

ActifMilitaireGEO
NORAD 23567·PAYLOAD·🇺🇸 United States

Lancé May 14, 1995 depuis Cape Canaveral Space Force Station

Loading…

TLE

FraisSource: Mike McCants

Époque: Sep 14, 2026, 16:33 UTC

1 23567U 95022A   26257.68989090  .00000000  00000-0  00000-0 0    05
2 23567  16.4199   7.0752 0031434 144.5537 215.6704  1.00270000 20669

Suivez USA 110 en temps réel avec AllMySat

Download on the App Store